Cook, MN

9:58 AM CST on January 16, 2018 (GMT -0600)
Cook Municipal

Weather History for KCQM - November, 2013

Change the Weather History Date:

Sunday, November 3, 2013

  Actual Average Record
Temperature  
Mean Temperature 35 °F -  
Max Temperature 46 °F 39 °F 62 °F (2008)
Min Temperature 24 °F 25 °F 12 °F (2003)
Degree Days  
Heating Degree Days 30    
Moisture  
Dew Point 29 °F    
Average Humidity 74    
Maximum Humidity 100    
Minimum Humidity 53    
Precipitation  
Precipitation 0.00 in - - ()
Sea Level Pressure  
Sea Level Pressure 30.00 in    
Wind  
Wind Speed 5 mph (SE)    
Max Wind Speed 20 mph    
Max Gust Speed 25 mph    
Visibility 10 miles    
Events      
Averages and records for this station are not official NWS values.
T = Trace of Precipitation, MM = Missing Value Source: NWS Daily Summary

Daily Weather History Graph

Daily Weather History Graph

Search for Another Location

Airport or City:

Trip Planner

Search our weather history database for the weather conditions in past years. The results will help you decide how hot, cold, wet, or windy it might be!

Date:

Astronomy

Nov. 03, 2013 Rise Set
Actual Time 6:58 AM CST 4:49 PM CST
Civil Twilight 6:26 AM CST 5:21 PM CST
Nautical Twilight 5:49 AM CST 5:58 PM CST
Astronomical Twilight 5:13 AM CST 6:34 PM CST
Moon 7:04 AM CST (11/3) 5:02 PM CST (11/3)
Length of Visible Light 10h 55m
Length of Day
9h 50m
New Moon, 0% of the Moon is Illuminated
Nov 3
New Moon
Nov 9
First Quarter
Nov 17
Full
Nov 25
Last Quarter
Dec 2
New

Hourly Weather History & Observations

Time (CST) Temp. Windchill Dew Point Humidity Pressure Visibility Wind Dir Wind Speed Gust Speed Precip Events Conditions
12:16 AM 24.8 °F - 23.0 °F 93% 30.05 in 10.0 mi Calm Calm - N/A   Clear
12:37 AM 26.6 °F 22.6 °F 24.8 °F 93% 30.05 in 10.0 mi SE 3.5 mph - N/A   Clear
12:57 AM 26.6 °F 22.6 °F 24.8 °F 93% 30.05 in 10.0 mi SE 3.5 mph - N/A   Clear
1:16 AM 26.6 °F 22.6 °F 24.8 °F 93% 30.06 in 10.0 mi SSE 3.5 mph - N/A   Clear
1:37 AM 26.6 °F - 24.8 °F 93% 30.07 in 10.0 mi Calm Calm - N/A   Clear
1:57 AM 26.6 °F - 24.8 °F 93% 30.07 in 10.0 mi Calm Calm - N/A   Clear
1:16 AM 26.6 °F - 24.8 °F 93% 30.07 in 10.0 mi Calm Calm - N/A   Clear
1:37 AM 24.8 °F - 23.0 °F 93% 30.07 in 10.0 mi Calm Calm - N/A   Clear
1:57 AM 24.8 °F - 23.0 °F 93% 30.08 in 10.0 mi Calm Calm - N/A   Clear
2:16 AM 26.6 °F - 24.8 °F 93% 30.08 in 10.0 mi Calm Calm - N/A   Clear
2:37 AM 24.8 °F - 23.0 °F 93% 30.08 in 10.0 mi Calm Calm - N/A   Clear
2:56 AM 24.8 °F - 24.8 °F 100% 30.09 in 10.0 mi Calm Calm - N/A   Clear
3:17 AM 24.8 °F - 24.8 °F 100% 30.08 in 10.0 mi Calm Calm - N/A   Clear
3:37 AM 26.6 °F 22.6 °F 24.8 °F 93% 30.08 in 10.0 mi ESE 3.5 mph - N/A   Clear
3:56 AM 24.8 °F 20.5 °F 24.8 °F 100% 30.07 in 10.0 mi ESE 3.5 mph - N/A   Clear
4:17 AM 24.8 °F 20.5 °F 23.0 °F 93% 30.08 in 10.0 mi ESE 3.5 mph - N/A   Clear
4:37 AM 26.6 °F - 24.8 °F 93% 30.07 in 10.0 mi Calm Calm - N/A   Clear
4:56 AM 28.4 °F 24.6 °F 26.6 °F 93% 30.06 in 10.0 mi East 3.5 mph - N/A   Clear
5:17 AM 28.4 °F - 26.6 °F 93% 30.07 in 10.0 mi Calm Calm - N/A   Clear
5:37 AM 28.4 °F - 26.6 °F 93% 30.07 in 10.0 mi Calm Calm - N/A   Clear
5:56 AM 28.4 °F - 26.6 °F 93% 30.06 in 10.0 mi Calm Calm - N/A   Clear
6:17 AM 30.2 °F 26.7 °F 26.6 °F 86% 30.06 in 10.0 mi ESE 3.5 mph - N/A   Clear
6:36 AM 30.2 °F 26.7 °F 26.6 °F 86% 30.06 in 10.0 mi East 3.5 mph - N/A   Clear
6:56 AM 30.2 °F - 26.6 °F 86% 30.06 in 10.0 mi Calm Calm - N/A   Clear
7:16 AM 30.2 °F - 26.6 °F 86% 30.06 in 10.0 mi Calm Calm - N/A   Clear
7:36 AM 32.0 °F 28.7 °F 28.4 °F 87% 30.07 in 10.0 mi ESE 3.5 mph - N/A   Clear
7:57 AM 32.0 °F - 28.4 °F 87% 30.07 in 10.0 mi Calm Calm - N/A   Clear
8:16 AM 33.8 °F 29.6 °F 28.4 °F 81% 30.07 in 10.0 mi SE 4.6 mph - N/A   Clear
8:37 AM 33.8 °F 27.0 °F 28.4 °F 81% 30.07 in 10.0 mi SE 8.1 mph - N/A   Clear
8:57 AM 35.6 °F 30.7 °F 28.4 °F 75% 30.07 in 10.0 mi SE 5.8 mph - N/A   Clear
9:16 AM 35.6 °F 30.7 °F 28.4 °F 75% 30.07 in 10.0 mi SE 5.8 mph - N/A   Clear
9:37 AM 39.2 °F 33.6 °F 30.2 °F 70% 30.06 in 10.0 mi SE 8.1 mph - N/A   Clear
9:57 AM 41.0 °F 35.8 °F 28.4 °F 61% 30.06 in 10.0 mi SSE 8.1 mph - N/A   Clear
10:16 AM 41.0 °F 34.7 °F 28.4 °F 61% 30.05 in 10.0 mi SE 10.4 mph 18.4 mph N/A   Clear
10:37 AM 42.8 °F 34.3 °F 28.4 °F 57% 30.05 in 10.0 mi SSE 19.6 mph 25.3 mph N/A   Clear
10:57 AM 44.6 °F 38.1 °F 28.4 °F 53% 30.04 in 10.0 mi SE 13.8 mph 24.2 mph N/A   Clear
11:16 AM 44.6 °F 38.1 °F 28.4 °F 53% 30.04 in 10.0 mi SE 13.8 mph 21.9 mph N/A   Clear
11:37 AM 44.6 °F 38.1 °F 28.4 °F 53% 30.03 in 10.0 mi SSE 13.8 mph 20.7 mph N/A   Scattered Clouds
11:56 AM 46.4 °F 40.4 °F 30.2 °F 53% 30.01 in 10.0 mi SE 13.8 mph 20.7 mph N/A   Scattered Clouds
12:16 PM 46.4 °F 41.9 °F 30.2 °F 53% 30.00 in 10.0 mi SE 9.2 mph 18.4 mph N/A   Clear
12:37 PM 46.4 °F 41.9 °F 30.2 °F 53% 29.99 in 10.0 mi SE 9.2 mph 21.9 mph N/A   Scattered Clouds
12:56 PM 46.4 °F 41.9 °F 30.2 °F 53% 29.99 in 10.0 mi SE 9.2 mph - N/A   Mostly Cloudy
1:16 PM 46.4 °F 41.1 °F 30.2 °F 53% 29.97 in 10.0 mi ESE 11.5 mph 20.7 mph N/A   Scattered Clouds
1:37 PM 44.6 °F 38.8 °F 30.2 °F 57% 29.97 in 10.0 mi ESE 11.5 mph 21.9 mph N/A   Scattered Clouds
1:56 PM 44.6 °F 40.2 °F 30.2 °F 57% 29.96 in 10.0 mi ESE 8.1 mph - N/A   Mostly Cloudy
2:17 PM 44.6 °F 38.8 °F 30.2 °F 57% 29.95 in 10.0 mi SE 11.5 mph 18.4 mph N/A   Mostly Cloudy
2:36 PM 44.6 °F 39.2 °F 32.0 °F 61% 29.94 in 10.0 mi SE 10.4 mph 23.0 mph N/A   Mostly Cloudy
2:56 PM 44.6 °F 39.2 °F 32.0 °F 61% 29.94 in 10.0 mi SE 10.4 mph 23.0 mph N/A   Mostly Cloudy
3:17 PM 44.6 °F 38.8 °F 32.0 °F 61% 29.94 in 10.0 mi SE 11.5 mph 20.7 mph N/A   Overcast
3:36 PM 44.6 °F 39.2 °F 32.0 °F 61% 29.93 in 10.0 mi ESE 10.4 mph 21.9 mph N/A   Overcast
3:56 PM 42.8 °F 37.0 °F 32.0 °F 66% 29.93 in 10.0 mi ESE 10.4 mph 18.4 mph N/A   Overcast
4:17 PM 42.8 °F 37.0 °F 32.0 °F 66% 29.92 in 10.0 mi ESE 10.4 mph 23.0 mph N/A   Overcast
4:36 PM 42.8 °F 37.0 °F 32.0 °F 66% 29.92 in 10.0 mi ESE 10.4 mph 20.7 mph N/A   Overcast
4:57 PM 42.8 °F 36.2 °F 32.0 °F 66% 29.92 in 10.0 mi ESE 12.7 mph 20.7 mph N/A   Overcast
5:16 PM 42.8 °F 36.2 °F 32.0 °F 66% 29.92 in 10.0 mi ESE 12.7 mph 21.9 mph N/A   Overcast
5:37 PM 42.8 °F 36.6 °F 32.0 °F 66% 29.93 in 10.0 mi SE 11.5 mph 24.2 mph N/A   Mostly Cloudy
5:56 PM 42.8 °F 38.0 °F 32.0 °F 66% 29.92 in 10.0 mi SE 8.1 mph 18.4 mph N/A   Scattered Clouds
6:17 PM 42.8 °F 38.0 °F 32.0 °F 66% 29.93 in 10.0 mi ESE 8.1 mph 19.6 mph N/A   Clear
6:36 PM 41.0 °F 35.8 °F 32.0 °F 70% 29.92 in 10.0 mi ESE 8.1 mph - N/A   Clear
6:57 PM 42.8 °F 38.6 °F 32.0 °F 66% 29.92 in 10.0 mi SE 6.9 mph 16.1 mph N/A   Clear
7:16 PM 42.8 °F 37.0 °F 32.0 °F 66% 29.92 in 10.0 mi SE 10.4 mph 17.3 mph N/A   Clear
7:37 PM 42.8 °F 35.8 °F 32.0 °F 66% 29.93 in 10.0 mi SE 13.8 mph 21.9 mph N/A   Clear
7:56 PM 42.8 °F 37.5 °F 32.0 °F 66% 29.92 in 10.0 mi ESE 9.2 mph 20.7 mph N/A   Clear
8:17 PM 42.8 °F 35.8 °F 32.0 °F 66% 29.92 in 10.0 mi SE 13.8 mph 21.9 mph N/A   Clear
8:36 PM 42.8 °F 38.0 °F 32.0 °F 66% 29.92 in 10.0 mi SE 8.1 mph 16.1 mph N/A   Clear
8:57 PM 42.8 °F 36.2 °F 30.2 °F 61% 29.92 in 10.0 mi SE 12.7 mph 20.7 mph N/A   Clear
9:17 PM 42.8 °F 36.6 °F 30.2 °F 61% 29.92 in 10.0 mi SE 11.5 mph 20.7 mph N/A   Clear
9:36 PM 42.8 °F 37.0 °F 30.2 °F 61% 29.93 in 10.0 mi SE 10.4 mph 18.4 mph N/A   Scattered Clouds
9:57 PM 41.0 °F 34.3 °F 30.2 °F 65% 29.92 in 10.0 mi SE 11.5 mph 21.9 mph N/A   Scattered Clouds
10:17 PM 42.8 °F 36.6 °F 30.2 °F 61% 29.92 in 10.0 mi SE 11.5 mph 21.9 mph N/A   Mostly Cloudy
10:37 PM 42.8 °F 35.1 °F 30.2 °F 61% 29.92 in 10.0 mi SE 16.1 mph 25.3 mph N/A   Overcast
10:56 PM 42.8 °F 36.2 °F 30.2 °F 61% 29.91 in 10.0 mi SE 12.7 mph 24.2 mph N/A   Overcast